TimeCDT,TemperatureF,Dew PointF,Humidity,Sea Level PressureIn,VisibilityMPH,Wind Direction,Wind SpeedMPH,Gust SpeedMPH,PrecipitationIn,Events,Conditions,WindDirDegrees,DateUTC
12:15 AM,62.6,61.3,96,30.04,10.0,NNW,3.5,-,N/A,,Overcast,330,2013-06-22 05:15:00
12:35 AM,62.1,60.8,96,30.02,10.0,North,4.6,-,N/A,,Overcast,10,2013-06-22 05:35:00
12:55 AM,61.7,60.8,97,29.97,10.0,NE,10.4,-,N/A,,Overcast,50,2013-06-22 05:55:00
1:15 AM,61.7,60.8,97,29.94,7.0,ENE,11.5,16.1,N/A,,Overcast,60,2013-06-22 06:15:00
1:35 AM,61.7,60.6,96,29.91,10.0,ENE,12.7,-,N/A,,Overcast,60,2013-06-22 06:35:00
1:55 AM,61.7,60.8,97,29.91,10.0,East,9.2,-,N/A,,Overcast,80,2013-06-22 06:55:00
2:15 AM,62.2,60.4,94,29.97,10.0,SE,10.4,-,N/A,,Overcast,140,2013-06-22 07:15:00
2:35 AM,62.6,60.8,94,30.00,10.0,SE,5.8,-,N/A,,Overcast,130,2013-06-22 07:35:00
2:55 AM,62.8,60.8,93,30.02,10.0,South,3.5,-,N/A,,Overcast,170,2013-06-22 07:55:00
3:15 AM,63.1,60.8,92,30.03,10.0,SSE,4.6,-,N/A,,Overcast,150,2013-06-22 08:15:00
3:35 AM,63.1,60.8,92,30.03,10.0,SE,3.5,-,N/A,,Overcast,130,2013-06-22 08:35:00
3:55 AM,62.2,60.8,95,30.04,10.0,Calm,Calm,-,N/A,,Mostly Cloudy,0,2013-06-22 08:55:00
4:15 AM,61.9,60.6,96,30.05,10.0,Calm,Calm,-,N/A,,Mostly Cloudy,0,2013-06-22 09:15:00
4:35 AM,60.3,59.7,98,30.05,7.0,North,3.5,-,N/A,,Overcast,10,2013-06-22 09:35:00
4:55 AM,60.6,60.1,98,30.05,7.0,Calm,Calm,-,N/A,,Mostly Cloudy,0,2013-06-22 09:55:00
5:15 AM,60.1,59.5,98,30.07,7.0,Calm,Calm,-,N/A,,Scattered Clouds,0,2013-06-22 10:15:00
5:35 AM,59.5,59.2,99,30.06,4.0,Calm,Calm,-,N/A,,Scattered Clouds,0,2013-06-22 10:35:00
5:55 AM,59.4,59.2,99,30.06,4.0,NE,3.5,-,N/A,,Clear,40,2013-06-22 10:55:00
6:15 AM,60.1,59.9,99,30.07,4.0,Calm,Calm,-,N/A,,Clear,0,2013-06-22 11:15:00
6:35 AM,61.0,60.6,99,30.09,7.0,Calm,Calm,-,N/A,,Mostly Cloudy,0,2013-06-22 11:35:00
6:55 AM,61.2,60.6,98,30.09,5.0,Calm,Calm,-,N/A,,Overcast,0,2013-06-22 11:55:00
7:15 AM,61.3,60.8,98,30.09,7.0,Calm,Calm,-,N/A,,Overcast,0,2013-06-22 12:15:00
7:35 AM,61.3,60.8,98,30.08,5.0,Calm,Calm,-,N/A,,Mostly Cloudy,0,2013-06-22 12:35:00
7:55 AM,62.2,61.2,96,30.07,7.0,East,5.8,-,N/A,Rain,Light Rain,90,2013-06-22 12:55:00
8:15 AM,62.2,60.8,95,30.03,10.0,East,9.2,-,N/A,,Light Drizzle,100,2013-06-22 13:15:00
8:35 AM,62.6,60.8,94,30.01,10.0,East,11.5,17.3,N/A,Rain,Light Rain,90,2013-06-22 13:35:00
8:55 AM,62.8,60.8,93,30.03,10.0,ESE,5.8,-,N/A,Rain,Light Rain,110,2013-06-22 13:55:00
9:15 AM,63.0,61.3,94,30.05,10.0,SE,4.6,-,N/A,Rain,Light Rain,140,2013-06-22 14:15:00
9:35 AM,63.1,61.5,94,30.04,10.0,SE,9.2,-,N/A,Rain,Light Rain,140,2013-06-22 14:35:00
9:55 AM,63.5,61.9,94,30.03,10.0,SW,6.9,21.9,N/A,,Mostly Cloudy,220,2013-06-22 14:55:00
10:15 AM,64.2,62.2,93,30.00,10.0,ESE,5.8,-,N/A,,Mostly Cloudy,120,2013-06-22 15:15:00
11:35 AM,67.1,63.9,89,30.01,10.0,SE,4.6,-,N/A,,Overcast,140,2013-06-22 16:35:00
11:55 AM,68.2,64.2,87,30.01,7.0,Calm,Calm,-,N/A,,Overcast,0,2013-06-22 16:55:00
12:15 PM,68.4,64.2,87,30.01,10.0,Calm,Calm,-,N/A,,Overcast,0,2013-06-22 17:15:00
12:35 PM,68.7,64.4,86,30.02,10.0,Calm,Calm,-,N/A,,Overcast,0,2013-06-22 17:35:00
12:55 PM,69.8,64.6,83,30.01,10.0,Calm,Calm,-,N/A,,Overcast,0,2013-06-22 17:55:00
1:35 PM,73.6,65.3,75,30.02,10.0,Calm,Calm,-,N/A,,Mostly Cloudy,0,2013-06-22 18:35:00
2:15 PM,74.1,65.3,74,30.01,10.0,Calm,Calm,-,N/A,,Scattered Clouds,0,2013-06-22 19:15:00
2:55 PM,74.3,64.8,72,30.01,10.0,East,6.9,-,N/A,,Scattered Clouds,80,2013-06-22 19:55:00
3:55 PM,73.9,65.5,75,29.99,10.0,ESE,6.9,-,N/A,,Overcast,120,2013-06-22 20:55:00
4:55 PM,73.6,66.0,77,29.98,10.0,ESE,3.5,-,N/A,,Overcast,120,2013-06-22 21:55:00
6:35 PM,72.1,65.7,80,29.98,10.0,SSE,10.4,-,N/A,,Mostly Cloudy,150,2013-06-22 23:35:00
7:15 PM,69.8,64.8,84,29.98,10.0,SSE,10.4,16.1,N/A,,Scattered Clouds,150,2013-06-23 00:15:00
9:15 PM,65.3,63.0,92,29.98,7.0,ESE,3.5,-,N/A,,Clear,110,2013-06-23 02:15:00
9:35 PM,64.9,63.0,93,29.98,7.0,ESE,5.8,-,N/A,,Scattered Clouds,120,2013-06-23 02:35:00
9:55 PM,65.5,63.3,93,29.99,7.0,ESE,6.9,-,N/A,,Mostly Cloudy,120,2013-06-23 02:55:00
10:35 PM,64.9,64.0,97,29.97,5.0,SE,8.1,16.1,N/A,Rain,Light Rain,130,2013-06-23 03:35:00
10:55 PM,65.1,64.4,98,29.96,4.0,SE,9.2,-,N/A,Rain,Light Rain,140,2013-06-23 03:55:00
11:15 PM,65.3,64.6,98,29.93,4.0,SE,18.4,-,N/A,Rain,Light Rain,130,2013-06-23 04:15:00
11:35 PM,65.5,64.8,98,29.93,4.0,WNW,16.1,28.8,N/A,Rain,Light Rain,300,2013-06-23 04:35:00
11:55 PM,66.6,65.3,96,29.93,5.0,South,6.9,18.4,N/A,,Overcast,190,2013-06-23 04:55:00